Find Kosmos-650

NORAD ID: 7281 Int'l Des: 1974-028 Owner: VTS Country: SU operational
LEOCIRCULAR

Current View

Loading 3D Globe...

About Kosmos-650

Description loading...

Upcoming Passes

Passes for default location (London). Set your location on the main map for personalized predictions.

Altitude History

Loading altitude history...

Two-Line Element Set

1 07281U 74028A 26150.64030256 .00000011 00000-0 14009-3 0 9998
2 07281 74.0419 216.4980 0020454 93.4411 60.3571 12.69567547413947
Epoch: May 30, 2026 • Age: 8 hours

Current Status

Altitude 1423.1 km
Velocity 7.14 km/s
Sub-Earth Point -64.46°S, 63.77°W
Type other

Most Searched